When you browse on this site, cookies collect data to enhance your experience and personalize the content and advertising you see.
Visit our Privacy Policy to learn more. By continuing to use the site, you agree to this use of cookies and data.

Stündliche Wetter Virudunagar

Heute, 5 August, Mittwoch

Zeit Temperatur Niederschläge Wind Luftdruck Luftfeuchtigkeit
00:00 +32°C° 0 mm 5 m/S 744 mmHg 53%
01:00 +30°C° 0 mm 5 m/S 744 mmHg 54%
02:00 +30°C° 0 mm 5 m/S 744 mmHg 54%
03:00 +30°C° 0 mm 5 m/S 743 mmHg 56%
04:00 +30°C° 0 mm 5 m/S 743 mmHg 57%
05:00 +30°C° 0 mm 4 m/S 743 mmHg 58%
06:00 +32°C° 0 mm 5 m/S 743 mmHg 55%
07:00 +32°C° 0 mm 6 m/S 744 mmHg 53%
08:00 +33°C° 0 mm 7 m/S 744 mmHg 50%
09:00 +34°C° 0 mm 8 m/S 744 mmHg 45%
10:00 +35°C° 0 mm 9 m/S 744 mmHg 41%
11:00 +38°C° 0 mm 10 m/S 744 mmHg 35%
12:00 +38°C° 0 mm 11 m/S 743 mmHg 35%
13:00 +38°C° 0 mm 11 m/S 743 mmHg 34%
14:00 +38°C° 0 mm 12 m/S 742 mmHg 34%
15:00 +38°C° 0 mm 11 m/S 742 mmHg 37%
16:00 +37°C° 0 mm 10 m/S 742 mmHg 40%
17:00 +35°C° 0 mm 9 m/S 742 mmHg 42%
18:00 +35°C° 0 mm 8 m/S 743 mmHg 44%
19:00 +34°C° 0 mm 7 m/S 744 mmHg 47%
20:00 +33°C° 0 mm 6 m/S 744 mmHg 49%
21:00 +33°C° 0 mm 6 m/S 744 mmHg 51%
22:00 +33°C° 0 mm 5 m/S 744 mmHg 52%
23:00 +32°C° 0 mm 5 m/S 744 mmHg 54%

Morgen, 6 August, Donnerstag

Zeit Temperatur Niederschläge Wind Luftdruck Luftfeuchtigkeit
00:00 +32°C° 0 mm 5 m/S 744 mmHg 56%
01:00 +32°C° 0 mm 5 m/S 744 mmHg 57%
02:00 +32°C° 0 mm 6 m/S 743 mmHg 59%
03:00 +30°C° 0 mm 6 m/S 743 mmHg 59%
04:00 +30°C° 0 mm 5 m/S 743 mmHg 59%
05:00 +30°C° 0 mm 5 m/S 743 mmHg 59%
06:00 +32°C° 0 mm 5 m/S 744 mmHg 59%
07:00 +32°C° 0 mm 6 m/S 745 mmHg 59%
08:00 +32°C° 0 mm 6 m/S 746 mmHg 58%
09:00 +34°C° 0 mm 6 m/S 746 mmHg 52%
10:00 +36°C° 0 mm 7 m/S 746 mmHg 46%
11:00 +38°C° 0 mm 8 m/S 746 mmHg 40%
12:00 +38°C° 0 mm 8 m/S 745 mmHg 39%
13:00 +39°C° 0 mm 8 m/S 745 mmHg 38%
14:00 +39°C° 0 mm 9 m/S 744 mmHg 37%
15:00 +38°C° 0 mm 8 m/S 744 mmHg 40%
16:00 +37°C° 0 mm 8 m/S 744 mmHg 43%
17:00 +35°C° 0 mm 7 m/S 744 mmHg 46%
18:00 +34°C° 0 mm 7 m/S 744 mmHg 47%
19:00 +34°C° 0 mm 7 m/S 745 mmHg 49%
20:00 +33°C° 0 mm 7 m/S 746 mmHg 50%
21:00 +33°C° 0 mm 6 m/S 746 mmHg 52%
22:00 +33°C° 0 mm 6 m/S 746 mmHg 53%
23:00 +32°C° 0 mm 5 m/S 746 mmHg 54%

übermorgen, 7 August, Freitag

Zeit Temperatur Niederschläge Wind Luftdruck Luftfeuchtigkeit
00:00 +32°C° 0 mm 5 m/S 746 mmHg 55%
01:00 +32°C° 0 mm 5 m/S 746 mmHg 57%
02:00 +32°C° 0 mm 5 m/S 745 mmHg 58%
03:00 +30°C° 0 mm 5 m/S 745 mmHg 59%
04:00 +30°C° 0 mm 5 m/S 745 mmHg 60%
05:00 +30°C° 0 mm 4 m/S 745 mmHg 61%
06:00 +32°C° 0 mm 5 m/S 746 mmHg 58%
07:00 +32°C° 0 mm 5 m/S 746 mmHg 56%
08:00 +33°C° 0 mm 5 m/S 747 mmHg 53%
09:00 +35°C° 0 mm 6 m/S 747 mmHg 49%
10:00 +36°C° 0 mm 6 m/S 747 mmHg 44%
11:00 +38°C° 0 mm 6 m/S 747 mmHg 40%
12:00 +38°C° 0 mm 7 m/S 746 mmHg 40%
13:00 +38°C° 0 mm 7 m/S 745 mmHg 41%
14:00 +38°C° 0 mm 7 m/S 745 mmHg 41%
15:00 +36°C° 0 mm 7 m/S 745 mmHg 43%
16:00 +35°C° 0 mm 6 m/S 745 mmHg 45%
17:00 +35°C° 0 mm 6 m/S 745 mmHg 46%
18:00 +34°C° 0.3 mm 5 m/S 745 mmHg 48%
19:00 +34°C° 0.3 mm 5 m/S 746 mmHg 51%
20:00 +33°C° 0.3 mm 5 m/S 747 mmHg 53%
21:00 +33°C° 0.5 mm 4 m/S 747 mmHg 54%
22:00 +32°C° 0.5 mm 4 m/S 747 mmHg 56%
23:00 +31°C° 0.5 mm 3 m/S 747 mmHg 58%

8 August, Samstag

Zeit Temperatur Niederschläge Wind Luftdruck Luftfeuchtigkeit
00:00 +31°C° 0.6 mm 3 m/S 747 mmHg 59%
01:00 +30°C° 0.6 mm 2 m/S 746 mmHg 59%
02:00 +30°C° 0.6 mm 2 m/S 745 mmHg 60%
03:00 +30°C° 0.1 mm 2 m/S 745 mmHg 62%
04:00 +30°C° 0.1 mm 1 m/S 745 mmHg 63%
05:00 +30°C° 0.1 mm 1 m/S 745 mmHg 64%
06:00 +30°C° 0.1 mm 1 m/S 746 mmHg 63%
07:00 +30°C° 0.1 mm 1 m/S 747 mmHg 62%
08:00 +31°C° 0.1 mm 1 m/S 747 mmHg 60%
09:00 +31°C° 0 mm 1 m/S 747 mmHg 57%
10:00 +32°C° 0 mm 1 m/S 747 mmHg 54%
11:00 +33°C° 0 mm 1 m/S 747 mmHg 51%
12:00 +34°C° 0 mm 2 m/S 746 mmHg 49%
13:00 +35°C° 0 mm 3 m/S 746 mmHg 47%
14:00 +36°C° 0 mm 3 m/S 745 mmHg 45%
15:00 +35°C° 0.1 mm 3 m/S 745 mmHg 46%
16:00 +35°C° 0.1 mm 3 m/S 745 mmHg 47%
17:00 +35°C° 0.1 mm 4 m/S 744 mmHg 48%
18:00 +33°C° 0.3 mm 4 m/S 745 mmHg 55%
19:00 +32°C° 0.3 mm 5 m/S 745 mmHg 63%
20:00 +29°C° 0.3 mm 6 m/S 746 mmHg 71%
21:00 +29°C° 0.7 mm 5 m/S 746 mmHg 73%
22:00 +28°C° 0.7 mm 4 m/S 746 mmHg 76%
23:00 +28°C° 0.7 mm 3 m/S 746 mmHg 78%

9 August, Sonntag

Zeit Temperatur Niederschläge Wind Luftdruck Luftfeuchtigkeit
00:00 +28°C° 0.2 mm 3 m/S 746 mmHg 78%
01:00 +28°C° 0.2 mm 3 m/S 745 mmHg 78%
02:00 +28°C° 0.2 mm 3 m/S 744 mmHg 78%
03:00 +28°C° 0.3 mm 3 m/S 745 mmHg 79%
04:00 +27°C° 0.3 mm 3 m/S 745 mmHg 79%
05:00 +27°C° 0.3 mm 3 m/S 745 mmHg 80%
06:00 +28°C° 0 mm 2 m/S 745 mmHg 78%
07:00 +28°C° 0 mm 2 m/S 746 mmHg 75%
08:00 +28°C° 0 mm 1 m/S 746 mmHg 73%
09:00 +29°C° 0 mm 1 m/S 746 mmHg 71%
10:00 +29°C° 0 mm 1 m/S 746 mmHg 68%
11:00 +28°C° 0 mm 0 m/S 746 mmHg 66%
12:00 +30°C° 0 mm 1 m/S 746 mmHg 65%
13:00 +30°C° 0 mm 1 m/S 745 mmHg 64%
14:00 +30°C° 0 mm 1 m/S 745 mmHg 63%
15:00 +30°C° 0.1 mm 1 m/S 745 mmHg 65%
16:00 +30°C° 0.1 mm 1 m/S 745 mmHg 67%
17:00 +29°C° 0.1 mm 1 m/S 745 mmHg 68%
18:00 +29°C° 0 mm 1 m/S 745 mmHg 70%
19:00 +29°C° 0 mm 1 m/S 746 mmHg 72%
20:00 +29°C° 0 mm 1 m/S 746 mmHg 73%
21:00 +28°C° 0.1 mm 1 m/S 746 mmHg 74%
22:00 +28°C° 0.1 mm 1 m/S 746 mmHg 76%
23:00 +28°C° 0.1 mm 1 m/S 747 mmHg 77%

10 August, Montag

Zeit Temperatur Niederschläge Wind Luftdruck Luftfeuchtigkeit
00:00 +28°C° 0.1 mm 1 m/S 746 mmHg 78%
01:00 +28°C° 0.1 mm 1 m/S 746 mmHg 79%
02:00 +27°C° 0.1 mm 1 m/S 745 mmHg 80%
03:00 +27°C° 0 mm 1 m/S 745 mmHg 79%
04:00 +28°C° 0 mm 1 m/S 745 mmHg 78%
05:00 +28°C° 0 mm 1 m/S 745 mmHg 77%
06:00 +28°C° 0 mm 1 m/S 746 mmHg 76%
07:00 +28°C° 0 mm 1 m/S 746 mmHg 74%
08:00 +28°C° 0 mm 1 m/S 747 mmHg 73%
09:00 +29°C° 0 mm 1 m/S 747 mmHg 68%
10:00 +30°C° 0 mm 2 m/S 747 mmHg 63%
11:00 +32°C° 0 mm 2 m/S 747 mmHg 58%
12:00 +32°C° 0 mm 2 m/S 746 mmHg 57%
13:00 +32°C° 0 mm 2 m/S 746 mmHg 56%
14:00 +33°C° 0 mm 3 m/S 745 mmHg 55%
15:00 +33°C° 0 mm 3 m/S 745 mmHg 55%
16:00 +33°C° 0 mm 3 m/S 745 mmHg 55%
17:00 +33°C° 0 mm 3 m/S 745 mmHg 55%
18:00 +31°C° 0 mm 3 m/S 745 mmHg 58%
19:00 +31°C° 0 mm 3 m/S 746 mmHg 61%
20:00 +30°C° 0 mm 2 m/S 746 mmHg 64%
21:00 +30°C° 0 mm 2 m/S 747 mmHg 65%
22:00 +30°C° 0 mm 2 m/S 747 mmHg 66%
23:00 +29°C° 0 mm 2 m/S 747 mmHg 68%
Mehr zeigen